Time,TemperatureF,DewpointF,PressureIn,WindDirection,WindDirectionDegrees,WindSpeedMPH,WindSpeedGustMPH,Humidity,HourlyPrecipIn,Conditions,Clouds,dailyrainin,SoftwareType,DateUTC
2013-03-18 00:02:00,37.6,36.0,29.22,NE,51,6.0,10.0,94,0.00,,,0.04,meteohub,2013-03-18 00:02:00,
2013-03-18 00:12:00,37.6,36.3,29.22,North,5,2.0,10.0,95,0.00,,,0.00,meteohub,2013-03-18 00:12:00,
2013-03-18 00:17:00,37.8,36.1,29.22,NE,41,2.0,9.0,94,0.00,,,0.00,meteohub,2013-03-18 00:17:00,
2013-03-18 00:22:00,37.8,36.1,29.22,NE,47,5.0,10.0,94,0.00,,,0.00,meteohub,2013-03-18 00:22:00,
2013-03-18 00:27:00,37.8,36.1,29.22,NNE,24,8.0,11.0,94,0.00,,,0.00,meteohub,2013-03-18 00:27:00,
2013-03-18 00:37:00,37.8,36.1,29.22,North,355,2.0,11.0,94,0.00,,,0.00,meteohub,2013-03-18 00:37:00,
2013-03-18 00:42:00,37.6,36.0,29.23,North,5,4.0,10.0,94,0.00,,,0.00,meteohub,2013-03-18 00:42:00,
2013-03-18 00:52:00,37.4,35.8,29.23,North,5,9.0,9.0,94,0.00,,,0.00,meteohub,2013-03-18 00:52:00,
2013-03-18 00:57:00,37.2,35.6,29.23,NNW,338,5.0,9.0,94,0.00,,,0.00,meteohub,2013-03-18 00:57:00,
2013-03-18 01:02:00,37.2,35.6,29.23,North,11,1.0,9.0,94,0.00,,,0.00,meteohub,2013-03-18 01:02:00,
2013-03-18 01:07:00,37.2,35.6,29.23,NNE,13,5.0,9.0,94,0.00,,,0.00,meteohub,2013-03-18 01:07:00,
2013-03-18 01:17:00,37.2,35.6,29.23,North,355,1.0,8.0,94,0.00,,,0.00,meteohub,2013-03-18 01:17:00,
2013-03-18 01:22:00,37.2,35.6,29.23,North,5,1.0,8.0,94,0.00,,,0.00,meteohub,2013-03-18 01:22:00,
2013-03-18 01:27:00,37.2,35.6,29.23,North,5,1.0,8.0,94,0.00,,,0.00,meteohub,2013-03-18 01:27:00,
2013-03-18 01:32:00,37.0,35.4,29.23,North,5,2.0,8.0,94,0.00,,,0.00,meteohub,2013-03-18 01:32:00,
2013-03-18 01:37:00,37.0,35.2,29.23,North,5,1.0,6.0,93,0.00,,,0.00,meteohub,2013-03-18 01:37:00,
2013-03-18 01:42:00,36.9,35.1,29.23,North,5,2.0,5.0,93,0.00,,,0.00,meteohub,2013-03-18 01:42:00,
2013-03-18 01:47:00,36.3,34.5,29.23,North,5,1.0,5.0,93,0.00,,,0.00,meteohub,2013-03-18 01:47:00,
2013-03-18 01:52:00,36.1,34.3,29.23,North,5,0.0,4.0,93,0.00,,,0.00,meteohub,2013-03-18 01:52:00,
2013-03-18 02:02:00,35.8,34.0,29.24,NNW,344,2.0,6.0,93,0.00,,,0.00,meteohub,2013-03-18 02:02:00,
2013-03-18 02:07:00,35.6,34.0,29.24,NNW,342,4.0,6.0,94,0.00,,,0.00,meteohub,2013-03-18 02:07:00,
2013-03-18 02:17:00,35.2,33.4,29.24,NNW,338,2.0,8.0,93,0.00,,,0.00,meteohub,2013-03-18 02:17:00,
2013-03-18 02:27:00,35.1,33.4,29.24,North,355,4.0,8.0,94,0.00,,,0.00,meteohub,2013-03-18 02:27:00,
2013-03-18 02:32:00,35.1,33.4,29.24,North,5,0.0,8.0,94,0.00,,,0.00,meteohub,2013-03-18 02:32:00,
2013-03-18 02:37:00,34.9,33.3,29.24,North,5,0.0,8.0,94,0.00,,,0.00,meteohub,2013-03-18 02:37:00,
2013-03-18 02:42:00,34.9,33.3,29.24,North,5,1.0,8.0,94,0.00,,,0.00,meteohub,2013-03-18 02:42:00,
2013-03-18 02:47:00,34.9,33.3,29.24,North,5,0.0,4.0,94,0.00,,,0.00,meteohub,2013-03-18 02:47:00,
2013-03-18 02:52:00,34.5,32.9,29.24,North,5,1.0,5.0,94,0.00,,,0.00,meteohub,2013-03-18 02:52:00,
2013-03-18 02:57:00,34.5,32.9,29.25,North,5,0.0,6.0,94,0.00,,,0.00,meteohub,2013-03-18 02:57:00,
2013-03-18 03:07:00,34.3,32.7,29.24,North,350,1.0,6.0,94,0.00,,,0.00,meteohub,2013-03-18 03:07:00,
2013-03-18 03:12:00,34.3,32.7,29.24,North,350,0.0,6.0,94,0.00,,,0.00,meteohub,2013-03-18 03:12:00,
2013-03-18 03:17:00,34.2,32.5,29.25,North,350,4.0,6.0,94,0.00,,,0.00,meteohub,2013-03-18 03:17:00,
2013-03-18 03:22:00,34.2,32.5,29.24,NNW,348,2.0,5.0,94,0.00,,,0.00,meteohub,2013-03-18 03:22:00,
2013-03-18 03:27:00,34.2,32.5,29.25,NNW,340,2.0,6.0,94,0.00,,,0.00,meteohub,2013-03-18 03:27:00,
2013-03-18 03:32:00,34.0,32.4,29.25,NNW,340,0.0,6.0,94,0.00,,,0.00,meteohub,2013-03-18 03:32:00,
2013-03-18 03:37:00,34.0,32.4,29.25,NNW,340,1.0,6.0,94,0.00,,,0.00,meteohub,2013-03-18 03:37:00,
2013-03-18 03:42:00,33.8,32.2,29.25,NNW,340,0.0,5.0,94,0.00,,,0.00,meteohub,2013-03-18 03:42:00,
2013-03-18 03:47:00,33.8,32.2,29.25,NNW,340,1.0,5.0,94,0.00,,,0.00,meteohub,2013-03-18 03:47:00,
2013-03-18 03:52:00,33.3,31.6,29.25,NNW,340,1.0,4.0,94,0.00,,,0.00,meteohub,2013-03-18 03:52:00,
2013-03-18 03:57:00,33.4,31.8,29.25,NNW,340,0.0,2.0,94,0.00,,,0.00,meteohub,2013-03-18 03:57:00,
2013-03-18 04:02:00,33.3,31.6,29.26,NNW,340,0.0,2.0,94,0.00,,,0.00,meteohub,2013-03-18 04:02:00,
2013-03-18 04:07:00,33.1,31.5,29.25,NNW,340,0.0,2.0,94,0.00,,,0.00,meteohub,2013-03-18 04:07:00,
2013-03-18 04:12:00,33.3,32.0,29.25,NNW,340,0.0,0.0,95,0.00,,,0.00,meteohub,2013-03-18 04:12:00,
2013-03-18 04:22:00,33.1,31.8,29.26,NNW,340,1.0,0.0,95,0.00,,,0.00,meteohub,2013-03-18 04:22:00,
2013-03-18 04:27:00,33.3,32.0,29.26,NNW,340,1.0,2.0,95,0.00,,,0.00,meteohub,2013-03-18 04:27:00,
2013-03-18 04:32:00,33.3,32.0,29.26,NNW,340,0.0,4.0,95,0.00,,,0.00,meteohub,2013-03-18 04:32:00,
2013-03-18 04:37:00,33.3,32.0,29.26,NNW,340,1.0,4.0,95,0.00,,,0.00,meteohub,2013-03-18 04:37:00,
2013-03-18 04:42:00,33.4,32.2,29.26,NNW,340,2.0,4.0,95,0.00,,,0.00,meteohub,2013-03-18 04:42:00,
2013-03-18 04:47:00,33.3,32.0,29.26,NNW,340,1.0,4.0,95,0.00,,,0.00,meteohub,2013-03-18 04:47:00,
2013-03-18 04:57:00,33.1,31.8,29.26,NW,325,4.0,6.0,95,0.00,,,0.00,meteohub,2013-03-18 04:57:00,
2013-03-18 05:02:00,33.1,31.8,29.26,NNW,333,2.0,6.0,95,0.00,,,0.00,meteohub,2013-03-18 05:02:00,
2013-03-18 05:07:00,33.1,31.8,29.26,NNW,333,1.0,6.0,95,0.00,,,0.00,meteohub,2013-03-18 05:07:00,
2013-03-18 05:12:00,33.1,31.8,29.26,NNW,333,2.0,6.0,95,0.00,,,0.00,meteohub,2013-03-18 05:12:00,
2013-03-18 05:17:00,33.1,31.8,29.27,NNW,333,5.0,5.0,95,0.00,,,0.00,meteohub,2013-03-18 05:17:00,
2013-03-18 05:22:00,33.1,31.8,29.27,NNW,333,1.0,6.0,95,0.00,,,0.00,meteohub,2013-03-18 05:22:00,
2013-03-18 05:27:00,33.1,31.8,29.27,NNW,333,4.0,6.0,95,0.00,,,0.00,meteohub,2013-03-18 05:27:00,
2013-03-18 05:32:00,32.7,31.5,29.27,NNW,333,0.0,6.0,95,0.00,,,0.00,meteohub,2013-03-18 05:32:00,
2013-03-18 05:37:00,32.7,31.5,29.27,NNW,333,2.0,4.0,95,0.00,,,0.00,meteohub,2013-03-18 05:37:00,
2013-03-18 05:47:00,32.5,31.3,29.27,NNW,333,1.0,5.0,95,0.00,,,0.00,meteohub,2013-03-18 05:47:00,
2013-03-18 05:52:00,32.5,31.3,29.27,NNW,333,1.0,5.0,95,0.00,,,0.00,meteohub,2013-03-18 05:52:00,
2013-03-18 05:57:00,32.5,31.3,29.27,NNW,333,2.0,4.0,95,0.00,,,0.00,meteohub,2013-03-18 05:57:00,
2013-03-18 06:02:00,32.4,31.1,29.27,NNW,333,0.0,5.0,95,0.00,,,0.00,meteohub,2013-03-18 06:02:00,
2013-03-18 06:07:00,32.4,31.1,29.28,NNW,333,0.0,5.0,95,0.00,,,0.00,meteohub,2013-03-18 06:07:00,
2013-03-18 06:12:00,32.4,31.1,29.28,NNW,333,1.0,5.0,95,0.00,,,0.00,meteohub,2013-03-18 06:12:00,
2013-03-18 06:17:00,32.4,31.1,29.28,NNW,333,2.0,4.0,95,0.00,,,0.00,meteohub,2013-03-18 06:17:00,
2013-03-18 06:22:00,32.2,30.9,29.28,NNW,333,2.0,5.0,95,0.00,,,0.00,meteohub,2013-03-18 06:22:00,
2013-03-18 06:27:00,32.0,30.7,29.28,NNW,333,1.0,5.0,95,0.00,,,0.00,meteohub,2013-03-18 06:27:00,
2013-03-18 06:32:00,32.0,30.7,29.28,NNW,333,0.0,5.0,95,0.00,,,0.00,meteohub,2013-03-18 06:32:00,
2013-03-18 06:42:00,31.5,30.2,29.28,NNW,333,0.0,5.0,95,0.00,,,0.00,meteohub,2013-03-18 06:42:00,
2013-03-18 06:47:00,31.5,30.2,29.29,NNW,333,0.0,4.0,95,0.00,,,0.00,meteohub,2013-03-18 06:47:00,
2013-03-18 06:52:00,31.6,30.4,29.28,NNW,333,0.0,2.0,95,0.00,,,0.00,meteohub,2013-03-18 06:52:00,
2013-03-18 06:57:00,31.8,30.6,29.29,NNW,333,0.0,2.0,95,0.00,,,0.00,meteohub,2013-03-18 06:57:00,
2013-03-18 07:02:00,32.2,30.9,29.29,NNW,333,0.0,4.0,95,0.00,,,0.00,meteohub,2013-03-18 07:02:00,
2013-03-18 07:07:00,32.4,31.1,29.29,NNW,333,1.0,4.0,95,0.00,,,0.00,meteohub,2013-03-18 07:07:00,
2013-03-18 07:12:00,32.5,31.3,29.29,NNW,333,0.0,4.0,95,0.00,,,0.00,meteohub,2013-03-18 07:12:00,
2013-03-18 07:17:00,32.5,31.3,29.29,NNW,333,1.0,4.0,95,0.00,,,0.00,meteohub,2013-03-18 07:17:00,
2013-03-18 07:22:00,32.7,31.5,29.29,NNW,333,1.0,4.0,95,0.00,,,0.00,meteohub,2013-03-18 07:22:00,
2013-03-18 07:27:00,32.5,31.3,29.29,NNW,333,0.0,4.0,95,0.00,,,0.00,meteohub,2013-03-18 07:27:00,
2013-03-18 07:32:00,32.5,31.3,29.29,NNW,333,1.0,4.0,95,0.00,,,0.00,meteohub,2013-03-18 07:32:00,
2013-03-18 07:37:00,32.9,31.6,29.29,NNW,333,1.0,4.0,95,0.00,,,0.00,meteohub,2013-03-18 07:37:00,
2013-03-18 07:42:00,33.1,31.8,29.29,NNW,333,0.0,5.0,95,0.00,,,0.00,meteohub,2013-03-18 07:42:00,
2013-03-18 07:52:00,33.4,32.2,29.30,NNW,333,0.0,5.0,95,0.00,,,0.00,meteohub,2013-03-18 07:52:00,
2013-03-18 07:57:00,33.4,32.2,29.30,NNW,333,2.0,5.0,95,0.00,,,0.00,meteohub,2013-03-18 07:57:00,
2013-03-18 08:02:00,33.6,32.5,29.30,NNW,333,0.0,4.0,96,0.00,,,0.00,meteohub,2013-03-18 08:02:00,
2013-03-18 08:07:00,34.0,32.9,29.29,NNW,333,0.0,4.0,96,0.00,,,0.00,meteohub,2013-03-18 08:07:00,
2013-03-18 08:12:00,34.2,33.1,29.30,NNW,333,1.0,4.0,96,0.00,,,0.00,meteohub,2013-03-18 08:12:00,
2013-03-18 08:17:00,34.2,32.9,29.30,NNW,333,2.0,4.0,95,0.00,,,0.00,meteohub,2013-03-18 08:17:00,
2013-03-18 08:27:00,34.9,33.8,29.30,NNW,333,1.0,4.0,96,0.00,,,0.00,meteohub,2013-03-18 08:27:00,
2013-03-18 08:32:00,35.2,34.2,29.30,NNW,333,0.0,2.0,96,0.00,,,0.00,meteohub,2013-03-18 08:32:00,
2013-03-18 08:37:00,35.2,34.2,29.30,NNW,333,0.0,2.0,96,0.00,,,0.00,meteohub,2013-03-18 08:37:00,
2013-03-18 08:42:00,35.8,34.7,29.30,NNW,333,0.0,2.0,96,0.00,,,0.00,meteohub,2013-03-18 08:42:00,
2013-03-18 08:47:00,36.1,35.1,29.31,NNW,333,0.0,5.0,96,0.00,,,0.00,meteohub,2013-03-18 08:47:00,
2013-03-18 08:52:00,36.7,35.6,29.31,NNW,333,0.0,5.0,96,0.00,,,0.00,meteohub,2013-03-18 08:52:00,
2013-03-18 08:57:00,36.7,35.6,29.31,NNW,333,4.0,5.0,96,0.00,,,0.00,meteohub,2013-03-18 08:57:00,
2013-03-18 09:02:00,36.9,35.6,29.31,NNE,26,0.0,5.0,95,0.00,,,0.00,meteohub,2013-03-18 09:02:00,
2013-03-18 09:07:00,36.9,35.6,29.31,NNE,26,1.0,6.0,95,0.00,,,0.00,meteohub,2013-03-18 09:07:00,
2013-03-18 09:17:00,37.2,36.0,29.31,North,350,1.0,6.0,95,0.00,,,0.00,meteohub,2013-03-18 09:17:00,
2013-03-18 09:22:00,37.8,36.5,29.31,North,350,2.0,6.0,95,0.00,,,0.00,meteohub,2013-03-18 09:22:00,
2013-03-18 09:27:00,38.5,37.2,29.31,NNE,32,2.0,6.0,95,0.00,,,0.00,meteohub,2013-03-18 09:27:00,
2013-03-18 09:32:00,39.2,37.9,29.31,NNE,27,1.0,5.0,95,0.00,,,0.00,meteohub,2013-03-18 09:32:00,
2013-03-18 09:42:00,40.6,39.0,29.32,NE,44,4.0,9.0,94,0.00,,,0.00,meteohub,2013-03-18 09:42:00,
2013-03-18 09:47:00,41.4,39.6,29.31,NNE,30,5.0,9.0,93,0.00,,,0.00,meteohub,2013-03-18 09:47:00,
2013-03-18 09:57:00,41.5,39.2,29.31,NNE,24,4.0,13.0,91,0.00,,,0.00,meteohub,2013-03-18 09:57:00,
2013-03-18 10:02:00,41.4,38.7,29.32,NNE,15,2.0,13.0,90,0.00,,,0.00,meteohub,2013-03-18 10:02:00,
2013-03-18 10:07:00,42.6,40.1,29.32,ENE,72,0.0,13.0,91,0.00,,,0.00,meteohub,2013-03-18 10:07:00,
2013-03-18 10:12:00,43.2,40.5,29.32,NE,40,2.0,9.0,90,0.00,,,0.00,meteohub,2013-03-18 10:12:00,
2013-03-18 10:17:00,42.8,39.7,29.32,ENE,62,2.0,9.0,89,0.00,,,0.00,meteohub,2013-03-18 10:17:00,
2013-03-18 10:22:00,42.8,39.6,29.32,NNE,13,2.0,9.0,88,0.00,,,0.00,meteohub,2013-03-18 10:22:00,
2013-03-18 10:27:00,42.6,39.4,29.32,NNE,27,4.0,10.0,88,0.00,,,0.00,meteohub,2013-03-18 10:27:00,
2013-03-18 10:37:00,44.2,41.0,29.32,NE,45,1.0,10.0,88,0.00,,,0.00,meteohub,2013-03-18 10:37:00,
2013-03-18 10:47:00,43.7,39.7,29.33,NE,40,6.0,9.0,86,0.00,,,0.00,meteohub,2013-03-18 10:47:00,
2013-03-18 10:52:00,43.3,39.4,29.33,NNE,32,2.0,9.0,86,0.00,,,0.00,meteohub,2013-03-18 10:52:00,
2013-03-18 10:57:00,44.6,40.6,29.33,NE,35,2.0,9.0,86,0.00,,,0.00,meteohub,2013-03-18 10:57:00,
2013-03-18 11:07:00,44.2,39.7,29.33,North,355,4.0,9.0,84,0.00,,,0.00,meteohub,2013-03-18 11:07:00,
2013-03-18 11:12:00,44.1,39.2,29.33,NE,48,2.0,9.0,83,0.00,,,0.00,meteohub,2013-03-18 11:12:00,
2013-03-18 11:22:00,46.0,41.2,29.34,NE,41,4.0,9.0,83,0.00,,,0.00,meteohub,2013-03-18 11:22:00,
2013-03-18 11:27:00,45.9,40.1,29.34,NE,54,8.0,9.0,80,0.00,,,0.00,meteohub,2013-03-18 11:27:00,
2013-03-18 11:37:00,44.6,39.2,29.34,NE,34,4.0,10.0,81,0.00,,,0.00,meteohub,2013-03-18 11:37:00,
2013-03-18 11:42:00,44.4,39.0,29.34,NE,45,2.0,10.0,81,0.00,,,0.00,meteohub,2013-03-18 11:42:00,
2013-03-18 11:47:00,44.4,38.7,29.34,NE,38,1.0,9.0,80,0.00,,,0.00,meteohub,2013-03-18 11:47:00,
2013-03-18 11:52:00,44.2,38.1,29.34,NE,34,2.0,9.0,79,0.00,,,0.00,meteohub,2013-03-18 11:52:00,
2013-03-18 11:57:00,44.4,38.7,29.34,NNE,32,0.0,8.0,80,0.00,,,0.00,meteohub,2013-03-18 11:57:00,
2013-03-18 12:02:00,44.8,39.0,29.34,ENE,65,2.0,8.0,80,0.00,,,0.00,meteohub,2013-03-18 12:02:00,
2013-03-18 12:12:00,45.0,39.2,29.35,NE,48,2.0,8.0,80,0.00,,,0.00,meteohub,2013-03-18 12:12:00,
2013-03-18 12:22:00,44.8,38.7,29.35,ENE,75,2.0,6.0,79,0.00,,,0.00,meteohub,2013-03-18 12:22:00,
2013-03-18 12:27:00,45.0,39.2,29.35,NE,35,2.0,6.0,80,0.00,,,0.00,meteohub,2013-03-18 12:27:00,
2013-03-18 12:32:00,45.1,38.7,29.35,ENE,57,1.0,6.0,78,0.00,,,0.00,meteohub,2013-03-18 12:32:00,
2013-03-18 12:37:00,45.1,38.7,29.35,East,83,1.0,9.0,78,0.00,,,0.00,meteohub,2013-03-18 12:37:00,
2013-03-18 12:42:00,45.5,39.4,29.35,NNE,32,4.0,9.0,79,0.00,,,0.00,meteohub,2013-03-18 12:42:00,
2013-03-18 12:47:00,45.9,39.7,29.35,NE,49,1.0,9.0,79,0.00,,,0.00,meteohub,2013-03-18 12:47:00,
2013-03-18 12:52:00,45.7,38.8,29.35,ENE,71,6.0,6.0,77,0.00,,,0.00,meteohub,2013-03-18 12:52:00,
2013-03-18 12:57:00,45.1,37.9,29.35,ENE,59,1.0,8.0,76,0.00,,,0.00,meteohub,2013-03-18 12:57:00,
2013-03-18 13:07:00,45.1,37.4,29.35,NNW,344,2.0,8.0,74,0.00,,,0.00,meteohub,2013-03-18 13:07:00,
2013-03-18 13:12:00,45.1,37.0,29.35,NNW,342,2.0,4.0,73,0.00,,,0.00,meteohub,2013-03-18 13:12:00,
2013-03-18 13:17:00,45.3,37.2,29.35,NNW,338,5.0,5.0,73,0.00,,,0.00,meteohub,2013-03-18 13:17:00,
2013-03-18 13:22:00,46.0,37.6,29.35,North,0,5.0,5.0,72,0.00,,,0.00,meteohub,2013-03-18 13:22:00,
2013-03-18 13:32:00,45.3,36.9,29.36,NW,316,2.0,8.0,72,0.00,,,0.00,meteohub,2013-03-18 13:32:00,
2013-03-18 13:37:00,45.3,37.2,29.36,NW,317,1.0,8.0,73,0.00,,,0.00,meteohub,2013-03-18 13:37:00,
2013-03-18 13:42:00,45.3,37.6,29.36,NNW,346,2.0,8.0,74,0.00,,,0.00,meteohub,2013-03-18 13:42:00,
2013-03-18 13:47:00,45.3,37.6,29.36,NW,325,2.0,5.0,74,0.00,,,0.00,meteohub,2013-03-18 13:47:00,
2013-03-18 13:57:00,45.1,37.4,29.36,NNW,331,2.0,5.0,74,0.00,,,0.00,meteohub,2013-03-18 13:57:00,
2013-03-18 14:02:00,45.1,37.4,29.36,NNW,331,0.0,5.0,74,0.00,,,0.00,meteohub,2013-03-18 14:02:00,
2013-03-18 14:07:00,45.3,37.2,29.36,North,355,0.0,5.0,73,0.00,,,0.00,meteohub,2013-03-18 14:07:00,
2013-03-18 14:17:00,45.9,37.4,29.36,North,350,1.0,6.0,72,0.00,,,0.00,meteohub,2013-03-18 14:17:00,
2013-03-18 14:27:00,46.2,37.4,29.36,NNW,346,0.0,5.0,71,0.00,,,0.00,meteohub,2013-03-18 14:27:00,
2013-03-18 14:37:00,46.9,38.1,29.36,North,355,0.0,5.0,71,0.00,,,0.00,meteohub,2013-03-18 14:37:00,
2013-03-18 14:42:00,46.8,37.2,29.36,NW,314,1.0,5.0,69,0.00,,,0.00,meteohub,2013-03-18 14:42:00,
2013-03-18 14:47:00,47.1,37.8,29.36,NE,54,0.0,6.0,70,0.00,,,0.00,meteohub,2013-03-18 14:47:00,
2013-03-18 14:57:00,46.9,36.1,29.36,NNW,336,2.0,6.0,66,0.00,,,0.00,meteohub,2013-03-18 14:57:00,
2013-03-18 15:02:00,46.8,36.7,29.36,NE,52,2.0,6.0,68,0.00,,,0.00,meteohub,2013-03-18 15:02:00,
2013-03-18 15:07:00,46.4,37.6,29.36,NE,44,1.0,6.0,71,0.00,,,0.00,meteohub,2013-03-18 15:07:00,
2013-03-18 15:12:00,46.2,38.5,29.36,NE,45,2.0,8.0,74,0.00,,,0.00,meteohub,2013-03-18 15:12:00,
2013-03-18 15:17:00,46.0,38.3,29.36,NNE,25,1.0,8.0,74,0.00,,,0.00,meteohub,2013-03-18 15:17:00,
2013-03-18 15:22:00,45.9,38.1,29.36,NE,42,1.0,6.0,74,0.00,,,0.00,meteohub,2013-03-18 15:22:00,
2013-03-18 15:27:00,45.7,37.6,29.36,NE,51,1.0,8.0,73,0.00,,,0.00,meteohub,2013-03-18 15:27:00,
2013-03-18 15:37:00,46.2,38.5,29.36,NE,44,2.0,8.0,74,0.00,,,0.00,meteohub,2013-03-18 15:37:00,
2013-03-18 15:42:00,46.6,38.7,29.36,NE,34,4.0,6.0,74,0.00,,,0.00,meteohub,2013-03-18 15:42:00,
2013-03-18 15:52:00,46.4,38.3,29.37,NNE,19,5.0,10.0,73,0.00,,,0.00,meteohub,2013-03-18 15:52:00,
2013-03-18 16:02:00,46.0,38.3,29.37,NNE,22,0.0,6.0,74,0.00,,,0.00,meteohub,2013-03-18 16:02:00,
2013-03-18 16:07:00,45.9,38.3,29.37,NNE,22,0.0,5.0,75,0.00,,,0.00,meteohub,2013-03-18 16:07:00,
2013-03-18 16:12:00,46.6,38.5,29.37,NNE,22,0.0,5.0,73,0.00,,,0.00,meteohub,2013-03-18 16:12:00,
2013-03-18 16:17:00,47.1,37.8,29.37,NE,36,4.0,4.0,70,0.00,,,0.00,meteohub,2013-03-18 16:17:00,
2013-03-18 16:22:00,47.5,36.7,29.37,NNE,12,4.0,9.0,66,0.00,,,0.00,meteohub,2013-03-18 16:22:00,
2013-03-18 16:27:00,48.0,36.9,29.37,NNE,28,4.0,9.0,65,0.00,,,0.00,meteohub,2013-03-18 16:27:00,
2013-03-18 16:32:00,47.7,36.9,29.37,NNE,33,4.0,9.0,66,0.00,,,0.00,meteohub,2013-03-18 16:32:00,
2013-03-18 16:42:00,48.0,37.2,29.37,NE,39,0.0,6.0,66,0.00,,,0.00,meteohub,2013-03-18 16:42:00,
2013-03-18 16:47:00,47.8,37.4,29.38,NNW,338,4.0,6.0,67,0.00,,,0.00,meteohub,2013-03-18 16:47:00,
2013-03-18 16:52:00,48.0,37.6,29.38,NNW,348,5.0,8.0,67,0.00,,,0.00,meteohub,2013-03-18 16:52:00,
2013-03-18 16:57:00,47.8,37.8,29.38,ENE,78,1.0,8.0,68,0.00,,,0.00,meteohub,2013-03-18 16:57:00,
2013-03-18 17:02:00,47.5,37.8,29.38,NE,42,1.0,8.0,69,0.00,,,0.00,meteohub,2013-03-18 17:02:00,
2013-03-18 17:12:00,47.1,37.0,29.38,North,5,8.0,10.0,68,0.00,,,0.00,meteohub,2013-03-18 17:12:00,
2013-03-18 17:17:00,47.1,37.4,29.38,NE,38,2.0,10.0,69,0.00,,,0.00,meteohub,2013-03-18 17:17:00,
2013-03-18 17:27:00,46.9,37.2,29.39,NW,315,2.0,10.0,69,0.00,,,0.00,meteohub,2013-03-18 17:27:00,
2013-03-18 17:32:00,46.9,36.9,29.39,NE,48,8.0,9.0,68,0.00,,,0.00,meteohub,2013-03-18 17:32:00,
2013-03-18 17:37:00,46.2,37.8,29.39,East,83,9.0,11.0,72,0.00,,,0.00,meteohub,2013-03-18 17:37:00,
2013-03-18 17:42:00,45.7,37.9,29.40,NE,37,13.0,18.0,74,0.00,,,0.00,meteohub,2013-03-18 17:42:00,
2013-03-18 17:47:00,45.1,37.9,29.40,NE,40,8.0,18.0,76,0.00,,,0.00,meteohub,2013-03-18 17:47:00,
2013-03-18 17:52:00,45.0,38.1,29.40,NNE,19,4.0,18.0,77,0.00,,,0.00,meteohub,2013-03-18 17:52:00,
2013-03-18 18:02:00,44.4,37.4,29.40,North,0,6.0,15.0,76,0.00,,,0.00,meteohub,2013-03-18 18:02:00,
2013-03-18 18:07:00,44.4,37.0,29.40,NE,56,5.0,15.0,75,0.00,,,0.00,meteohub,2013-03-18 18:07:00,
2013-03-18 18:12:00,44.4,37.4,29.40,ENE,62,2.0,15.0,76,0.00,,,0.00,meteohub,2013-03-18 18:12:00,
2013-03-18 18:17:00,44.4,37.4,29.40,NE,53,2.0,13.0,76,0.00,,,0.00,meteohub,2013-03-18 18:17:00,
2013-03-18 18:27:00,44.2,37.2,29.41,NE,41,1.0,10.0,76,0.00,,,0.00,meteohub,2013-03-18 18:27:00,
2013-03-18 18:37:00,44.2,36.9,29.41,NE,43,5.0,9.0,75,0.00,,,0.00,meteohub,2013-03-18 18:37:00,
2013-03-18 18:42:00,44.2,37.2,29.41,NNE,31,2.0,8.0,76,0.00,,,0.00,meteohub,2013-03-18 18:42:00,
2013-03-18 18:52:00,44.1,37.4,29.42,ENE,58,6.0,8.0,77,0.00,,,0.00,meteohub,2013-03-18 18:52:00,
2013-03-18 18:57:00,44.1,37.6,29.42,NE,49,0.0,8.0,78,0.00,,,0.00,meteohub,2013-03-18 18:57:00,
2013-03-18 19:02:00,43.9,37.4,29.42,NE,38,8.0,8.0,78,0.00,,,0.00,meteohub,2013-03-18 19:02:00,
2013-03-18 19:07:00,43.9,37.8,29.42,NNE,33,10.0,13.0,79,0.00,,,0.00,meteohub,2013-03-18 19:07:00,
2013-03-18 19:12:00,43.7,37.9,29.42,NE,34,5.0,14.0,80,0.00,,,0.00,meteohub,2013-03-18 19:12:00,
2013-03-18 19:17:00,43.3,37.9,29.43,ENE,64,11.0,14.0,81,0.00,,,0.00,meteohub,2013-03-18 19:17:00,
2013-03-18 19:27:00,43.0,38.1,29.44,ENE,78,6.0,19.0,83,0.00,,,0.00,meteohub,2013-03-18 19:27:00,
2013-03-18 19:32:00,42.6,37.8,29.44,ENE,67,6.0,19.0,83,0.00,,,0.00,meteohub,2013-03-18 19:32:00,
2013-03-18 19:37:00,42.4,37.6,29.44,ENE,64,2.0,19.0,83,0.00,,,0.00,meteohub,2013-03-18 19:37:00,
2013-03-18 19:42:00,42.3,37.4,29.44,NE,44,8.0,14.0,83,0.00,,,0.00,meteohub,2013-03-18 19:42:00,
2013-03-18 19:52:00,41.9,37.4,29.44,ENE,71,6.0,16.0,84,0.00,,,0.00,meteohub,2013-03-18 19:52:00,
2013-03-18 19:57:00,41.7,37.6,29.45,East,84,11.0,18.0,85,0.00,,,0.00,meteohub,2013-03-18 19:57:00,
2013-03-18 20:07:00,41.5,37.9,29.45,ENE,76,10.0,18.0,87,0.00,,,0.00,meteohub,2013-03-18 20:07:00,
2013-03-18 20:12:00,41.4,38.1,29.45,NE,55,5.0,18.0,88,0.00,,,0.00,meteohub,2013-03-18 20:12:00,
2013-03-18 20:17:00,41.4,38.3,29.45,ENE,66,5.0,15.0,89,0.00,,,0.00,meteohub,2013-03-18 20:17:00,
2013-03-18 20:22:00,41.4,38.7,29.45,ENE,78,6.0,15.0,90,0.00,,,0.00,meteohub,2013-03-18 20:22:00,
2013-03-18 20:27:00,41.2,38.5,29.46,ENE,74,6.0,10.0,90,0.00,,,0.00,meteohub,2013-03-18 20:27:00,
2013-03-18 20:32:00,41.2,38.5,29.46,ENE,73,6.0,10.0,90,0.00,,,0.00,meteohub,2013-03-18 20:32:00,
2013-03-18 20:37:00,41.2,38.5,29.46,ENE,69,6.0,14.0,90,0.00,,,0.00,meteohub,2013-03-18 20:37:00,
2013-03-18 20:42:00,40.8,38.5,29.46,NE,43,6.0,14.0,91,0.00,,,0.00,meteohub,2013-03-18 20:42:00,
2013-03-18 20:47:00,40.8,38.5,29.46,ENE,59,10.0,14.0,91,0.00,,,0.00,meteohub,2013-03-18 20:47:00,
2013-03-18 20:52:00,40.8,38.5,29.47,ENE,69,11.0,14.0,91,0.00,,,0.00,meteohub,2013-03-18 20:52:00,
2013-03-18 21:02:00,40.6,37.9,29.47,ENE,60,5.0,15.0,90,0.00,,,0.00,meteohub,2013-03-18 21:02:00,
2013-03-18 21:12:00,40.5,37.8,29.47,NE,56,8.0,14.0,90,0.00,,,0.00,meteohub,2013-03-18 21:12:00,
2013-03-18 21:17:00,40.5,37.8,29.47,ENE,66,6.0,13.0,90,0.00,,,0.00,meteohub,2013-03-18 21:17:00,
2013-03-18 21:22:00,40.3,37.6,29.47,ENE,63,10.0,13.0,90,0.00,,,0.00,meteohub,2013-03-18 21:22:00,
2013-03-18 21:32:00,40.1,37.4,29.47,ENE,57,2.0,14.0,90,0.00,,,0.00,meteohub,2013-03-18 21:32:00,
2013-03-18 21:37:00,40.1,37.4,29.47,ENE,74,4.0,14.0,90,0.00,,,0.00,meteohub,2013-03-18 21:37:00,
2013-03-18 21:42:00,40.1,37.4,29.48,ENE,71,6.0,11.0,90,0.00,,,0.00,meteohub,2013-03-18 21:42:00,
2013-03-18 21:47:00,39.9,37.2,29.48,East,80,4.0,11.0,90,0.00,,,0.00,meteohub,2013-03-18 21:47:00,
2013-03-18 21:52:00,39.9,37.2,29.48,NE,41,4.0,11.0,90,0.00,,,0.00,meteohub,2013-03-18 21:52:00,
2013-03-18 21:57:00,39.9,37.2,29.48,NE,46,5.0,11.0,90,0.00,,,0.00,meteohub,2013-03-18 21:57:00,
2013-03-18 22:02:00,40.1,37.4,29.48,ENE,59,4.0,9.0,90,0.00,,,0.00,meteohub,2013-03-18 22:02:00,
2013-03-18 22:07:00,40.1,37.4,29.49,NE,36,5.0,9.0,90,0.00,,,0.00,meteohub,2013-03-18 22:07:00,
2013-03-18 22:12:00,40.1,37.4,29.48,NE,47,4.0,9.0,90,0.00,,,0.00,meteohub,2013-03-18 22:12:00,
2013-03-18 22:17:00,40.1,37.4,29.49,NE,53,4.0,8.0,90,0.00,,,0.00,meteohub,2013-03-18 22:17:00,
2013-03-18 22:22:00,40.1,37.4,29.49,NE,38,1.0,8.0,90,0.00,,,0.00,meteohub,2013-03-18 22:22:00,
2013-03-18 22:27:00,40.1,37.4,29.49,NE,52,4.0,8.0,90,0.00,,,0.00,meteohub,2013-03-18 22:27:00,
2013-03-18 22:32:00,40.3,37.6,29.49,NE,51,5.0,9.0,90,0.00,,,0.00,meteohub,2013-03-18 22:32:00,
2013-03-18 22:42:00,40.1,37.0,29.49,NE,51,5.0,9.0,89,0.00,,,0.00,meteohub,2013-03-18 22:42:00,
2013-03-18 22:47:00,40.1,37.0,29.49,ENE,64,4.0,9.0,89,0.00,,,0.00,meteohub,2013-03-18 22:47:00,
2013-03-18 22:52:00,39.9,36.9,29.49,NE,41,5.0,9.0,89,0.00,,,0.00,meteohub,2013-03-18 22:52:00,
2013-03-18 22:57:00,39.9,36.9,29.49,NE,55,2.0,10.0,89,0.00,,,0.00,meteohub,2013-03-18 22:57:00,
2013-03-18 23:07:00,39.7,36.5,29.49,ENE,61,4.0,10.0,88,0.00,,,0.00,meteohub,2013-03-18 23:07:00,
2013-03-18 23:12:00,39.7,36.5,29.49,NE,51,2.0,14.0,88,0.00,,,0.00,meteohub,2013-03-18 23:12:00,
2013-03-18 23:17:00,39.6,36.3,29.49,ENE,69,4.0,14.0,88,0.00,,,0.00,meteohub,2013-03-18 23:17:00,
2013-03-18 23:22:00,39.6,36.3,29.49,ENE,65,2.0,11.0,88,0.00,,,0.00,meteohub,2013-03-18 23:22:00,
2013-03-18 23:32:00,39.6,36.0,29.50,NNE,31,4.0,13.0,87,0.00,,,0.00,meteohub,2013-03-18 23:32:00,
2013-03-18 23:37:00,39.6,36.0,29.50,ENE,61,4.0,13.0,87,0.00,,,0.00,meteohub,2013-03-18 23:37:00,
2013-03-18 23:42:00,39.4,35.8,29.50,NE,45,5.0,13.0,87,0.00,,,0.00,meteohub,2013-03-18 23:42:00,
2013-03-18 23:47:00,39.4,35.6,29.50,NE,42,8.0,10.0,86,0.00,,,0.00,meteohub,2013-03-18 23:47:00,
2013-03-18 23:52:00,39.4,35.6,29.50,NE,44,8.0,10.0,86,0.00,,,0.00,meteohub,2013-03-18 23:52:00,
2013-03-18 23:57:00,39.4,35.6,29.50,NE,49,5.0,11.0,86,0.00,,,0.00,meteohub,2013-03-18 23:57:00,